Weather History for KMJX - April, 2014

Change the Weather History Date:

Wednesday, April 30, 2014

  Actual Average Record
Temperature  
Mean Temperature 52 °F -  
Max Temperature 62 °F 66 °F 91 °F (1974)
Min Temperature 41 °F 42 °F 31 °F (1992)
Degree Days  
Heating Degree Days 14    
Growing Degree Days 2 (Base 50)    
Moisture  
Dew Point 47 °F    
Average Humidity 91    
Maximum Humidity 100    
Minimum Humidity 81    
Precipitation  
Precipitation 2.65 in - - ()
Sea Level Pressure  
Sea Level Pressure 30.19 in    
Wind  
Wind Speed 9 mph (ESE)    
Max Wind Speed 17 mph    
Max Gust Speed 26 mph    
Visibility 5 miles    
Events      
Averages and records for this station are not official NWS values.
T = Trace of Precipitation, MM = Missing Value Source: NWS Daily Summary

Daily Weather History Graph

Daily Weather History Graph

Search for Another Location

Airport or City:

Trip Planner

Search our weather history database for the weather conditions in past years. The results will help you decide how hot, cold, wet, or windy it might be!

Date:

Astronomy

Apr. 30, 2014 Rise Set
Actual Time 5:58 AM EDT 7:50 PM EDT
Civil Twilight 5:29 AM EDT 8:20 PM EDT
Nautical Twilight 4:54 AM EDT 8:55 PM EDT
Astronomical Twilight 4:15 AM EDT 9:33 PM EDT
Moon 6:57 AM EDT (4/30) 9:27 PM EDT (4/30)
Length of Visible Light 14h 50m
Length of Day
13h 52m
New Moon, 2% of the Moon is Illuminated
Apr 30
New Moon
May 6
First Quarter
May 14
Full
May 21
Last Quarter
May 28
New

Hourly Weather History & Observations

Time (EDT) Temp. Windchill Dew Point Humidity Pressure Visibility Wind Dir Wind Speed Gust Speed Precip Events Conditions
12:15 AM 42.8 °F 37.0 °F 39.2 °F 87% 30.34 in 8.0 mi East 10.4 mph 23.0 mph 0.02 in   Overcast
12:35 AM 42.8 °F 40.1 °F 39.2 °F 87% 30.34 in 9.0 mi East 4.6 mph - 0.03 in   Overcast
12:55 AM 42.8 °F 39.3 °F 39.2 °F 87% 30.34 in 7.0 mi East 5.8 mph - 0.05 in   Overcast
1:15 AM 42.8 °F 38.6 °F 39.2 °F 87% 30.34 in 7.0 mi East 6.9 mph - 0.05 in   Overcast
1:35 AM 42.8 °F 39.3 °F 39.2 °F 87% 30.34 in 7.0 mi ENE 5.8 mph 16.1 mph 0.09 in   Overcast
1:55 AM 42.8 °F 38.6 °F 39.2 °F 87% 30.33 in 8.0 mi East 6.9 mph - 0.10 in   Overcast
2:15 AM 42.8 °F 38.0 °F 39.2 °F 87% 30.32 in 9.0 mi East 8.1 mph 17.3 mph 0.01 in   Overcast
2:35 AM 42.8 °F 37.0 °F 39.2 °F 87% 30.32 in 8.0 mi East 10.4 mph - 0.03 in   Overcast
2:55 AM 42.8 °F 38.6 °F 41.0 °F 93% 30.31 in 7.0 mi East 6.9 mph 16.1 mph 0.06 in   Overcast
3:15 AM 42.8 °F 39.3 °F 39.2 °F 87% 30.30 in 6.0 mi East 5.8 mph - 0.07 in   Overcast
3:35 AM 44.6 °F 40.7 °F 39.2 °F 81% 30.30 in 7.0 mi East 6.9 mph - 0.10 in   Overcast
3:55 AM 44.6 °F 40.2 °F 39.2 °F 81% 30.32 in 6.0 mi ENE 8.1 mph - 0.11 in   Overcast
4:15 AM 44.6 °F 39.7 °F 42.8 °F 93% 30.30 in 2.5 mi ENE 9.2 mph - 0.02 in   Overcast
4:35 AM 44.6 °F 40.2 °F 42.8 °F 93% 30.30 in 3.0 mi ENE 8.1 mph - 0.05 in   Overcast
4:55 AM 44.6 °F 39.7 °F 41.0 °F 87% 30.29 in 5.0 mi ENE 9.2 mph 20.7 mph 0.17 in   Overcast
5:15 AM 44.6 °F 39.2 °F 39.2 °F 81% 30.29 in 8.0 mi East 10.4 mph 20.7 mph 0.02 in   Overcast
5:35 AM 44.6 °F 40.7 °F 42.8 °F 93% 30.30 in 6.0 mi ENE 6.9 mph 18.4 mph 0.07 in   Overcast
5:55 AM 44.6 °F 39.7 °F 41.0 °F 87% 30.30 in 6.0 mi East 9.2 mph 18.4 mph 0.08 in   Overcast
6:15 AM 44.6 °F 40.2 °F 41.0 °F 87% 30.29 in 3.0 mi East 8.1 mph - 0.01 in   Overcast
6:35 AM 44.6 °F 40.7 °F 42.8 °F 93% 30.29 in 2.0 mi East 6.9 mph 16.1 mph 0.02 in   Overcast
7:15 AM 44.6 °F 41.4 °F 42.8 °F 93% 30.30 in 2.5 mi East 5.8 mph - 0.05 in   Overcast
7:35 AM 44.6 °F 39.7 °F 42.8 °F 93% 30.30 in 3.0 mi East 9.2 mph - 0.06 in   Overcast
7:55 AM 44.6 °F 41.4 °F 42.8 °F 93% 30.30 in 1.8 mi East 5.8 mph - 0.08 in   Overcast
8:15 AM 44.6 °F 39.2 °F 42.8 °F 93% 30.29 in 1.5 mi East 10.4 mph - 0.01 in   Overcast
8:35 AM 44.6 °F 40.2 °F 44.6 °F 100% 30.29 in 2.0 mi East 8.1 mph - 0.03 in   Overcast
8:55 AM 46.4 °F 41.5 °F 44.6 °F 93% 30.29 in 2.5 mi East 10.4 mph 17.3 mph 0.06 in   Overcast
9:15 AM 46.4 °F 42.9 °F 42.8 °F 87% 30.28 in 3.0 mi East 6.9 mph 16.1 mph 0.03 in   Overcast
9:35 AM 46.4 °F 40.7 °F 42.8 °F 87% 30.28 in 5.0 mi East 12.7 mph 18.4 mph 0.08 in   Overcast
9:55 AM 46.4 °F 44.3 °F 42.8 °F 87% 30.28 in 5.0 mi East 4.6 mph - 0.14 in   Overcast
10:15 AM 46.4 °F 42.4 °F 42.8 °F 87% 30.27 in 5.0 mi East 8.1 mph 19.6 mph 0.08 in   Overcast
10:35 AM 46.4 °F 41.9 °F 44.6 °F 93% 30.27 in 4.0 mi East 9.2 mph 16.1 mph 0.18 in   Overcast
11:15 AM 46.4 °F 42.4 °F 44.6 °F 93% 30.26 in 5.0 mi East 8.1 mph - 0.04 in   Overcast
11:35 AM 46.4 °F 41.9 °F 44.6 °F 93% 30.26 in 4.0 mi East 9.2 mph - 0.11 in   Overcast
11:55 AM 46.4 °F 42.4 °F 44.6 °F 93% 30.26 in 5.0 mi ENE 8.1 mph - 0.22 in   Overcast
12:15 PM 46.4 °F 43.5 °F 44.6 °F 93% 30.26 in 4.0 mi East 5.8 mph - 0.16 in   Overcast
12:35 PM 42.8 °F 39.3 °F 42.8 °F 100% 30.25 in 5.0 mi East 5.8 mph - 0.22 in   Overcast
12:55 PM 41.0 °F 35.2 °F 41.0 °F 100% 30.24 in 5.0 mi East 9.2 mph - 0.25 in   Overcast
1:15 PM 42.8 °F 37.5 °F 42.8 °F 100% 30.23 in 2.5 mi East 9.2 mph - 0.03 in   Overcast
1:35 PM 44.6 °F 40.2 °F 44.6 °F 100% 30.21 in 2.5 mi East 8.1 mph 18.4 mph 0.05 in   Overcast
1:55 PM 46.4 °F 41.9 °F 46.4 °F 100% 30.19 in 2.0 mi East 9.2 mph - 0.08 in   Overcast
2:15 PM 50.0 °F - 48.2 °F 94% 30.17 in 2.0 mi East 10.4 mph 18.4 mph 0.02 in   Overcast
2:35 PM 50.0 °F - 48.2 °F 94% 30.16 in 1.8 mi East 10.4 mph 24.2 mph 0.05 in   Overcast
2:55 PM 51.8 °F - 50.0 °F 94% 30.15 in 1.8 mi East 8.1 mph 17.3 mph 0.06 in   Overcast
3:15 PM 53.6 °F - 50.0 °F 88% 30.14 in 3.0 mi ESE 9.2 mph 19.6 mph 0.04 in   Overcast
3:35 PM 53.6 °F - 51.8 °F 94% 30.14 in 2.0 mi ESE 6.9 mph - 0.10 in   Overcast
3:55 PM 53.6 °F - 51.8 °F 94% 30.12 in 4.0 mi SE 10.4 mph 19.6 mph 0.19 in   Overcast
4:15 PM 53.6 °F - 50.0 °F 88% 30.11 in 3.0 mi ESE 12.7 mph 21.9 mph 0.01 in   Overcast
4:35 PM 53.6 °F - 51.8 °F 94% 30.10 in 5.0 mi ESE 10.4 mph 18.4 mph 0.02 in   Overcast
5:15 PM 53.6 °F - 51.8 °F 94% 30.09 in 6.0 mi SE 10.4 mph 19.6 mph N/A   Overcast
5:35 PM 53.6 °F - 51.8 °F 94% 30.08 in 3.0 mi SE 11.5 mph 18.4 mph N/A   Overcast
5:55 PM 55.4 °F - 51.8 °F 88% 30.08 in 6.0 mi SSE 11.5 mph 21.9 mph 0.02 in   Overcast
6:15 PM 55.4 °F - 51.8 °F 88% 30.07 in 4.0 mi SSE 9.2 mph 19.6 mph 0.13 in   Overcast
6:35 PM 55.4 °F - 53.6 °F 94% 30.06 in 5.0 mi SSE 10.4 mph 19.6 mph 0.16 in   Overcast
6:55 PM 55.4 °F - 53.6 °F 94% 30.06 in 7.0 mi SSE 13.8 mph 21.9 mph 0.17 in   Overcast
7:15 PM 57.2 °F - 53.6 °F 88% 30.06 in 5.0 mi SSE 11.5 mph 20.7 mph 0.03 in   Overcast
7:35 PM 57.2 °F - 55.4 °F 94% 30.04 in 7.0 mi SSE 12.7 mph 19.6 mph 0.05 in   Overcast
7:55 PM 57.2 °F - 55.4 °F 94% 30.03 in 8.0 mi SSE 11.5 mph 20.7 mph 0.07 in   Overcast
8:15 PM 57.2 °F - 55.4 °F 94% 30.02 in 4.0 mi SSE 12.7 mph 20.7 mph 0.15 in   Overcast
8:35 PM 57.2 °F - 55.4 °F 94% 30.03 in 10.0 mi SSE 10.4 mph 21.9 mph 0.18 in   Overcast
8:55 PM 59.0 °F - 55.4 °F 88% 30.01 in 5.0 mi SSE 11.5 mph 26.5 mph 0.30 in   Overcast
9:15 PM 59.0 °F - 55.4 °F 88% 30.01 in 10.0 mi SSE 12.7 mph 20.7 mph 0.03 in   Overcast
9:35 PM 60.8 °F - 57.2 °F 88% 30.02 in 9.0 mi SW 5.8 mph 17.3 mph 0.08 in   Overcast
10:15 PM 60.8 °F - 59.0 °F 94% 29.99 in 10.0 mi South 13.8 mph 18.4 mph 0.03 in   Overcast
10:35 PM 60.8 °F - 57.2 °F 88% 29.98 in 7.0 mi SSE 11.5 mph 19.6 mph 0.10 in   Overcast
10:55 PM 60.8 °F - 59.0 °F 94% 29.97 in 10.0 mi South 9.2 mph - 0.13 in   Overcast
11:15 PM 62.6 °F - 59.0 °F 88% 29.96 in 10.0 mi South 17.3 mph 25.3 mph 0.01 in   Overcast
11:35 PM 60.8 °F - 59.0 °F 94% 29.95 in 10.0 mi South 16.1 mph 23.0 mph 0.01 in   Overcast
11:55 PM 60.8 °F - 57.2 °F 88% 29.95 in 10.0 mi South 12.7 mph 19.6 mph 0.01 in   Overcast